Total_Precipitation_Accumulation
0.00 0.00 0.01 0.02 0.05 0.04 0.02 0.01 0.03 0.04 0.07 0.03 0.01 0.01 0.00 0.00 0.00 0.00 0.00 0.01 0.01 0.01 0.01 0.01 0.02 0.02 0.02 0.03 0.03 0.04 0.05 0.05 0.06 0.06 0.06 0.05 0.05 0.05 0.06 0.08 0.11 0.15 0.17 0.17
0.00 0.00 0.01 0.03 0.06 0.03 0.01 0.00 0.00 0.00 0.01 0.00 0.00 0.01 0.01 0.02 0.03 0.04 0.04 0.04 0.04 0.04 0.03 0.02 0.02 0.02 0.02 0.03 0.03 0.04 0.05 0.05 0.05 0.05 0.05 0.06 0.06 0.06 0.07 0.10 0.15 0.20 0.21 0.22
0.00 0.00 0.01 0.07 0.04 0.01 0.00 0.00 0.00 0.00 0.00 0.00 0.01 0.01 0.02 0.05 0.06 0.05 0.03 0.02 0.01 0.01 0.00 0.00 0.00 0.00 0.00 0.01 0.01 0.02 0.03 0.03 0.03 0.05 0.05 0.07 0.07 0.08 0.10 0.14 0.19 0.24 0.26 0.28
0.00 0.00 0.04 0.07 0.01 0.00 0.00 0.00 0.00 0.00 0.00 0.00 0.00 0.01 0.01 0.01 0.01 0.00 0.00 0.00 0.00 0.00 0.00 0.00 0.00 0.00 0.00 0.00 0.01 0.01 0.02 0.03 0.04 0.06 0.08 0.09 0.13 0.15 0.19 0.22 0.24 0.27 0.28 0.31
0.00 0.00 0.03 0.02 0.00 0.00 0.00 0.01 0.00 0.00 0.00 0.00 0.00 0.00 0.00 0.00 0.00 0.00 0.00 0.00 0.00 0.00 0.00 0.00 0.00 0.00 0.01 0.01 0.01 0.02 0.03 0.05 0.06 0.09 0.11 0.14 0.16 0.22 0.29 0.32 0.30 0.34 0.37 0.39
0.00 0.00 0.02 0.02 0.00 0.00 0.00 0.02 0.00 0.00 0.00 0.00 0.00 0.00 0.00 0.00 0.00 0.00 0.00 0.00 0.00 0.00 0.00 0.00 0.01 0.01 0.02 0.02 0.04 0.05 0.07 0.08 0.10 0.14 0.18 0.21 0.24 0.29 0.33 0.38 0.38 0.41 0.44 0.49
0.00 0.00 0.00 0.00 0.00 0.00 0.00 0.00 0.00 0.00 0.00 0.00 0.00 0.00 0.00 0.00 0.00 0.00 0.00 0.00 0.00 0.00 0.00 0.01 0.01 0.03 0.06 0.07 0.09 0.10 0.11 0.11 0.13 0.17 0.22 0.25 0.32 0.36 0.38 0.40 0.42 0.46 0.49 0.54
0.00 0.01 0.01 0.00 0.00 0.00 0.00 0.00 0.00 0.00 0.00 0.00 0.00 0.00 0.00 0.00 0.00 0.00 0.00 0.00 0.00 0.00 0.00 0.01 0.03 0.07 0.10 0.12 0.12 0.12 0.13 0.14 0.14 0.17 0.18 0.21 0.31 0.35 0.39 0.46 0.48 0.51 0.57 0.64
0.00 0.00 0.00 0.00 0.00 0.00 0.00 0.00 0.00 0.00 0.00 0.00 0.00 0.00 0.00 0.00 0.00 0.00 0.00 0.00 0.00 0.00 0.01 0.02 0.05 0.10 0.15 0.13 0.13 0.15 0.16 0.16 0.17 0.18 0.22 0.27 0.33 0.34 0.36 0.40 0.41 0.46 0.61 0.76
0.00 0.00 0.00 0.00 0.00 0.00 0.00 0.00 0.00 0.00 0.00 0.00 0.00 0.00 0.00 0.00 0.00 0.00 0.00 0.00 0.00 0.02 0.04 0.06 0.07 0.09 0.12 0.13 0.16 0.20 0.20 0.19 0.20 0.22 0.24 0.28 0.36 0.38 0.37 0.37 0.37 0.42 0.59 0.73
0.00 0.00 0.00 0.00 0.00 0.00 0.00 0.00 0.00 0.00 0.00 0.00 0.00 0.00 0.00 0.00 0.00 0.00 0.00 0.01 0.02 0.05 0.09 0.10 0.09 0.09 0.10 0.14 0.22 0.25 0.24 0.23 0.23 0.26 0.28 0.29 0.35 0.38 0.33 0.33 0.30 0.31 0.47 0.70
0.00 0.00 0.00 0.00 0.00 0.00 0.00 0.00 0.00 0.00 0.00 0.00 0.00 0.00 0.00 0.00 0.00 0.00 0.01 0.04 0.08 0.12 0.14 0.14 0.13 0.13 0.13 0.19 0.27 0.32 0.30 0.27 0.26 0.27 0.28 0.30 0.34 0.34 0.26 0.19 0.16 0.14 0.19 0.34
0.00 0.00 0.00 0.00 0.00 0.00 0.00 0.00 0.00 0.00 0.00 0.00 0.00 0.00 0.00 0.00 0.00 0.01 0.05 0.11 0.18 0.22 0.23 0.21 0.20 0.19 0.18 0.24 0.32 0.34 0.34 0.31 0.29 0.27 0.27 0.27 0.29 0.34 0.38 0.33 0.18 0.12 0.10 0.14
0.00 0.00 0.00 0.00 0.00 0.00 0.00 0.00 0.00 0.00 0.00 0.00 0.00 0.00 0.00 0.00 0.01 0.05 0.12 0.21 0.30 0.32 0.30 0.28 0.26 0.22 0.22 0.28 0.32 0.31 0.30 0.29 0.27 0.25 0.25 0.26 0.29 0.33 0.35 0.42 0.42 0.32 0.18 0.11
0.00 0.00 0.00 0.00 0.00 0.00 0.00 0.00 0.00 0.00 0.00 0.00 0.00 0.00 0.00 0.01 0.05 0.12 0.21 0.34 0.42 0.38 0.32 0.31 0.28 0.24 0.24 0.29 0.32 0.30 0.29 0.25 0.21 0.20 0.22 0.25 0.30 0.31 0.32 0.38 0.47 0.53 0.45 0.20
0.00 0.00 0.00 0.00 0.00 0.00 0.00 0.00 0.00 0.00 0.00 0.01 0.01 0.01 0.01 0.03 0.08 0.16 0.26 0.41 0.52 0.50 0.40 0.35 0.29 0.23 0.23 0.29 0.30 0.27 0.24 0.20 0.15 0.15 0.18 0.24 0.27 0.27 0.31 0.40 0.50 0.59 0.58 0.32
0.00 0.00 0.00 0.01 0.01 0.01 0.01 0.01 0.01 0.01 0.01 0.02 0.02 0.02 0.02 0.04 0.13 0.24 0.33 0.40 0.44 0.43 0.41 0.38 0.29 0.22 0.23 0.28 0.27 0.26 0.23 0.19 0.14 0.13 0.18 0.21 0.24 0.28 0.33 0.43 0.53 0.60 0.52 0.27
0.00 0.01 0.01 0.01 0.01 0.02 0.01 0.01 0.01 0.02 0.02 0.02 0.02 0.02 0.02 0.08 0.24 0.40 0.47 0.51 0.46 0.38 0.36 0.35 0.27 0.21 0.21 0.23 0.24 0.24 0.20 0.17 0.15 0.16 0.18 0.21 0.22 0.29 0.35 0.46 0.55 0.58 0.44 0.23
0.02 0.02 0.02 0.02 0.02 0.01 0.01 0.01 0.01 0.01 0.01 0.02 0.02 0.01 0.02 0.08 0.26 0.40 0.46 0.57 0.63 0.57 0.46 0.37 0.26 0.20 0.20 0.19 0.18 0.21 0.19 0.17 0.16 0.16 0.18 0.15 0.19 0.28 0.32 0.39 0.48 0.50 0.37 0.27
0.02 0.02 0.01 0.01 0.01 0.01 0.00 0.00 0.01 0.01 0.01 0.01 0.01 0.01 0.01 0.07 0.22 0.36 0.43 0.51 0.61 0.62 0.56 0.45 0.26 0.18 0.16 0.17 0.19 0.18 0.17 0.16 0.14 0.13 0.13 0.14 0.18 0.22 0.24 0.28 0.36 0.38 0.31 0.28
0.01 0.01 0.01 0.01 0.00 0.00 0.00 0.00 0.00 0.01 0.01 0.01 0.01 0.01 0.01 0.05 0.14 0.28 0.50 0.61 0.53 0.49 0.49 0.49 0.29 0.15 0.12 0.14 0.19 0.19 0.18 0.17 0.14 0.14 0.13 0.13 0.15 0.19 0.23 0.26 0.26 0.25 0.24 0.25
0.00 0.00 0.00 0.00 0.00 0.00 0.00 0.00 0.00 0.00 0.00 0.00 0.01 0.01 0.02 0.04 0.10 0.19 0.34 0.52 0.53 0.50 0.38 0.38 0.30 0.14 0.10 0.09 0.11 0.15 0.17 0.20 0.19 0.19 0.17 0.16 0.16 0.18 0.22 0.22 0.18 0.15 0.18 0.24
0.00 0.00 0.00 0.00 0.00 0.00 0.00 0.00 0.00 0.00 0.00 0.01 0.01 0.01 0.02 0.04 0.11 0.26 0.34 0.34 0.39 0.42 0.30 0.25 0.26 0.19 0.12 0.10 0.10 0.10 0.11 0.14 0.15 0.14 0.12 0.12 0.13 0.13 0.14 0.15 0.14 0.14 0.19 0.25
0.00 0.00 0.00 0.00 0.00 0.00 0.00 0.00 0.00 0.00 0.00 0.01 0.01 0.01 0.02 0.05 0.09 0.15 0.26 0.31 0.36 0.40 0.31 0.28 0.24 0.20 0.16 0.14 0.14 0.12 0.10 0.11 0.11 0.10 0.10 0.11 0.11 0.12 0.15 0.19 0.20 0.19 0.21 0.22
0.00 0.00 0.00 0.01 0.01 0.01 0.01 0.01 0.01 0.01 0.01 0.01 0.01 0.01 0.03 0.05 0.11 0.17 0.22 0.26 0.31 0.34 0.31 0.30 0.28 0.26 0.21 0.20 0.22 0.20 0.16 0.14 0.13 0.12 0.13 0.15 0.17 0.20 0.21 0.23 0.23 0.20 0.18 0.17
0.01 0.01 0.01 0.01 0.01 0.02 0.02 0.02 0.02 0.02 0.02 0.03 0.03 0.04 0.05 0.08 0.14 0.21 0.28 0.31 0.32 0.32 0.25 0.21 0.19 0.20 0.18 0.21 0.23 0.23 0.21 0.19 0.18 0.18 0.20 0.24 0.26 0.27 0.25 0.23 0.23 0.20 0.16 0.15
0.02 0.02 0.02 0.02 0.02 0.03 0.03 0.03 0.04 0.05 0.05 0.06 0.06 0.06 0.10 0.15 0.20 0.24 0.27 0.28 0.28 0.26 0.21 0.16 0.13 0.10 0.10 0.10 0.11 0.14 0.17 0.20 0.20 0.21 0.23 0.25 0.25 0.23 0.21 0.20 0.21 0.17 0.13 0.14